Terminal Aerodrome Forecast
Issued by NWS Brownsville, TX

Home | Current Version | Previous Version | Text Only | Print | Product List | Glossary On
Versions: 1 2 3 4 5 6 7 8 9 10 11 12 13 14 15 16 17 18 19 20 21 22 23 24 25
000
FTUS44 KBRO 020500
TAFBRO
TAF
KBRO 020522Z 0206/0306 14005KT 6SM BR SKC
     FM021500 16012KT P6SM BKN030
     FM021800 15016KT P6SM SCT030 BKN050
     FM030000 14010KT P6SM SCT015 BKN030=

USA.gov is the U.S. government's official web portal to all federal, state and local government web resources and services.